TOURFACTS.DK  
Stats and Facts from Tour de France.

Tour de France 2018 starts in 16 days
  Riders   Stages   Teams   Summits   Yearly  


 
Search by year

After 2017 - Stage 21:
 14824 starters.
  5132 different riders.
  639 teams.
  2232 stages.
  456 restdays.
  439589.60 km.
  5653 abandonnees.


Top 3
GC
Christopher Froome86:20:55
Rigoberto Urán86:21:49
Romain Bardet86:23:15
Climb
Warren Barguil169 pt.
Primoz Roglic80 pt.
Thomas De Gendt64 pt.
Sprint
Michael Matthews359 pt.
André Greipel234 pt.
Edvald Boasson Hagen220 pt.
Youth
Simon Yates86:27:09
Louis Meintjes86:29:15
Emanuel Buchmann86:54:16
Facts from Tour de France 1948
  |   Stages.  |   Stage winners.  |   Days in yellow  |   Average speed.  |   Route.  |   Teams.  |   All riders.  |   Rookies.  |  

  |   Withdrawls.  |   GC.  |   Polka  |   Green  |   White  |   Summits. (In tour)  |   Miscellaneous.  |  

Stage 6 on 05 - 07 - 1948
         Owning:    Louison Bobet    
Pick a stage:  1 2 3 4 5 6 7 8 9 10 11 12 13 14 15 16 17 18 19 20 21
  BordeauxBiarritz | Dist: 244.00 km.

Average speed for all riders in stage:  37,217 km./hr.
    Place:Name:Team:Time:Km/h:
FRALouison BobetFRAFrance06:27:14  +  00:00:00=37,807 
FRAEdouard MullerFRAIle De France-North East06:27:14  +  00:00:00=37,807 
FRAYvan MarieFRAWest06:27:14  +  00:00:00=37,807 
4 BELVictor JolyINTInternations06:27:14  +  00:00:00=37,807 
5 FRALucien TeisseireFRAFrance06:29:19  +  00:02:05=37,604 
6 BELAlbert RamonBELBelgium06:29:19  +  00:02:05=37,604 
7 BELStan OckersBELBelgium06:29:19  +  00:02:05=37,604 
8 GEREdouard KlabinskiINTInternations06:29:23  +  00:02:09=37,598 
9 BELEdward Van DijckBELBelgium06:29:23  +  00:02:09=37,598 
10 BELLucien MathysBELAiglons Belges06:29:23  +  00:02:09=37,598 
11 FRAGuy LapébieFRACenter-South West06:29:49  +  00:02:35=37,556 
12 ITAGino SciardisINTInternations06:29:49  +  00:02:35=37,556 
13 FRARaoul RemyFRASouth-East06:29:49  +  00:02:35=37,556 
14 BELAndré DeclerckBELBelgium06:29:49  +  00:02:35=37,556 
15 BELRaymond ImpanisBELBelgium06:29:49  +  00:02:35=37,556 
16 BELFlorent MathieuBELBelgium06:29:49  +  00:02:35=37,556 
17 BELRené MertensBELBelgium06:29:49  +  00:02:35=37,556 
18 BELBriek SchotteBELBelgium06:29:49  +  00:02:35=37,556 
19 NEDHenk de HoogINTHolland-Luxembourg06:29:49  +  00:02:35=37,556 
20 NEDWim De RuyterINTHolland-Luxembourg06:29:49  +  00:02:35=37,556 
21 LUXJean KirchenINTHolland-Luxembourg06:29:49  +  00:02:35=37,556 
22 SUIPierre BrambillaINTInternations06:29:49  +  00:02:35=37,556 
23 FRAJacques MarinelliFRAParis06:29:49  +  00:02:35=37,556 
24 FRAKléber PiotFRAParis06:29:49  +  00:02:35=37,556 
25 FRALouis ThiétardFRAParis06:29:49  +  00:02:35=37,556 
26 FRAGeorges MartinFRASouth-East06:29:49  +  00:02:35=37,556 
27 FRAJean ReyFRASouth-East06:29:49  +  00:02:35=37,556 
28 FRAAmédée RollandFRASouth-East06:29:49  +  00:02:35=37,556 
29 ITAFermo CamelliniINTInternations06:29:49  +  00:02:35=37,556 
30 BELRoger LambrechtINTInternations06:29:49  +  00:02:35=37,556 
31 ITAGiuseppe TaccaINTInternations06:29:49  +  00:02:35=37,556 
32 ITAGino BartaliITAItaly06:29:49  +  00:02:35=37,556 
33 ITASerifano BiagioniITAItaly06:29:49  +  00:02:35=37,556 
34 ITAGiordano CotturITAItaly06:29:49  +  00:02:35=37,556 
35 ITAÉdouard FachleitnerFRAFrance06:29:49  +  00:02:35=37,556 
36 FRARené ViettoFRAFrance06:29:49  +  00:02:35=37,556 
37 BELMarcel DupontBELAiglons Belges06:29:49  +  00:02:35=37,556 
38 BELJean EngelsBELAiglons Belges06:29:49  +  00:02:35=37,556 
39 BELLeon JomauxBELAiglons Belges06:29:49  +  00:02:35=37,556 
40 BELRik RendersBELAiglons Belges06:29:49  +  00:02:35=37,556 
41 BELAndré RosseelBELAiglons Belges06:29:49  +  00:02:35=37,556 
42 ITAAldo RonconiITACadetti Italiens06:29:49  +  00:02:35=37,556 
43 ITAAlfred MacorigFRACenter-South West06:29:49  +  00:02:35=37,556 
44 FRADaniel OrtsFRACenter-South West06:29:49  +  00:02:35=37,556 
45 FRAGeorges RamouluxFRACenter-South West06:29:49  +  00:02:35=37,556 
46 ITAUrbain CaffiFRAIle De France-North East06:29:49  +  00:02:35=37,556 
47 FRAAlphonse De VreeseFRAIle De France-North East06:29:49  +  00:02:35=37,556 
48 FRAFrancois HelaryFRAIle De France-North East06:29:49  +  00:02:35=37,556 
49 FRADaniel ThuayreFRAIle De France-North East06:29:49  +  00:02:35=37,556 
50 FRARobert BonnaventureFRAWest06:29:49  +  00:02:35=37,556 
51 FRAPierre CoganFRAWest06:29:49  +  00:02:35=37,556 
52 FRARaymond GueganFRAWest06:29:49  +  00:02:35=37,556 
53 FRAAndré BruléFRAParis06:29:49  +  00:02:35=37,556 
54 FRALucien LaukFRAParis06:29:49  +  00:02:35=37,556 
55 ITABruno PasquiniITAItaly06:29:49  +  00:02:35=37,556 
56 FRARobert DesbatsFRACenter-South West06:32:34  +  00:05:20=37,293 
57 FRAPaul MayeFRACenter-South West06:33:12  +  00:05:58=37,233 
58 FRAPierre MolinerisFRASouth-East06:33:12  +  00:05:58=37,233 
59 FRALouis DeprezFRAIle De France-North East06:33:12  +  00:05:58=37,233 
60 FRAJean RobicFRAFrance06:33:12  +  00:05:58=37,233 
61 BELAdolf VerschuerenBELAiglons Belges06:33:12  +  00:05:58=37,233 
62 ITAGiovanni CorrieriITAItaly06:33:12  +  00:05:58=37,233 
63 BELFlorent RondeléBELAiglons Belges06:33:12  +  00:05:58=37,233 
64 NEDJoseph JanssenINTHolland-Luxembourg06:33:12  +  00:05:58=37,233 
65 BELNorbert CallensBELBelgium06:33:12  +  00:05:58=37,233 
66 SUIRoger AeschlimannINTInternations06:33:12  +  00:05:58=37,233 
67 FRAJacques PrasFRACenter-South West06:33:12  +  00:05:58=37,233 
68 FRAMaurice De MuerFRAIle De France-North East06:33:12  +  00:05:58=37,233 
69 FRAJean De GribaldyFRAIle De France-North East06:33:12  +  00:05:58=37,233 
70 BELMaurice MeersmanBELAiglons Belges06:33:12  +  00:05:58=37,233 
71 FRAPaul GiguetFRAFrance06:33:12  +  00:05:58=37,233 
72 FRAJean-Apotre LazaridesFRAFrance06:33:12  +  00:05:58=37,233 
73 FRABernard GauthierFRASouth-East06:33:12  +  00:05:58=37,233 
74 FRARoger ChupinFRAWest06:33:12  +  00:05:58=37,233 
75 ITAEgidio FeruglioITAItaly06:33:12  +  00:05:58=37,233 
76 LUXWilly KempINTHolland-Luxembourg06:33:12  +  00:05:58=37,233 
77 FRAJean-Marie GoasmatFRAWest06:33:12  +  00:05:58=37,233 
78 FRAMaurice CarpentierFRAWest06:36:19  +  00:09:05=36,940 
79 FRACamille DanguillaumeFRAFrance06:39:39  +  00:12:25=36,632 
80 FRAEmile IdéeFRAFrance06:39:39  +  00:12:25=36,632 
81 FRAMaurice DiotFRAParis06:39:57  +  00:12:43=36,605 
82 FRARaphaël GeminianiFRACenter-South West06:39:57  +  00:12:43=36,605 
83 FRALucien LaukFRAParis06:39:57  +  00:12:43=36,605 
84 FRAPierre BaratinFRAIle De France-North East06:39:57  +  00:12:43=36,605 
85 ITAAntonio BevilacquaITAItaly06:39:57  +  00:12:43=36,605 
86 MEXAttilio LambertiniITACadetti Italiens06:39:57  +  00:12:43=36,605 
87 ITAVittorio MagniITACadetti Italiens06:39:57  +  00:12:43=36,605 
88 ITAPaul NeriINTInternations06:39:57  +  00:12:43=36,605 
89 ITAVittorio SeghezziITACadetti Italiens06:39:57  +  00:12:43=36,605 
90 GERCésar MarcelakFRAIle De France-North East06:39:57  +  00:12:43=36,605 
91 FRARobert MignatFRAParis06:39:57  +  00:12:43=36,605 
92 FRARobert ChapatteFRAParis06:39:57  +  00:12:43=36,605 
93 FRARaymond GoussotFRAParis06:39:57  +  00:12:43=36,605 
94 NEDBernard FrankenINTHolland-Luxembourg06:39:57  +  00:12:43=36,605 
95 ITAEnzo CoppiniITACadetti Italiens06:39:57  +  00:12:43=36,605 
96 LUXRené BieverINTHolland-Luxembourg06:42:20  +  00:15:06=36,388 
97 ITAVincenzo RosselloITAItaly06:42:34  +  00:15:20=36,367 
98 NEDFrans PauwelsINTHolland-Luxembourg06:59:25  +  00:32:11=34,906 
99 ITAPrimo VolpiITAItaly06:59:25  +  00:32:11=34,906 
100 FRARoger LevequeFRACenter-South West07:02:14  +  00:35:00=34,673 

Withdrawls: 4
 
Rider
Team
Reason
11  NEDCor BakkerINTHolland-LuxembourgDid not finish
17  LUXHenri AckermannINTHolland-LuxembourgDid not finish
111  FRAMarius BonnetFRASouth-EastDid not finish
114  ALGMaurice LauzeFRASouth-EastDid not finish

Todays birthdays.

1887  Charles Ponson
1913  Raymond Lemarie
1928  Jacques Dupont
1951  Francesco Moser
1959  Laurent Biondi
1975  Bert Grabsch
1987  Sacha Modolo




Visits: